User: anonymous   Login
Location: ??
(34.9170°N, 135.5016°E)
Time: 15:33:09
(UTC+00:00)
Language:

Cosmos 2292 Rocket - Orbit

View from above orbital plane
View from above orbital plane
View from above satellite
View from above satellite

Ground track
Ground track

The orbit data is extracted from the following two-line orbital elements,

1 23279U 94061B   21017.19616454  .00000812  00000-0  50453-4 0  9992
2 23279  82.9671  57.3176 0734713 137.2070 228.8772 13.93755391307497
Epoch (UTC): 17 January 2021 04:42:28
Eccentricity: 0.0734713
inclination: 82.9671°
perigee height: 379 km
apogee height: 1451 km
right ascension of ascending node: 57.3176°
argument of perigee: 137.2070°
revolutions per day: 13.93755391
mean anomaly at epoch: 228.8772°
orbit number at epoch: 30749

The dashed part of the orbit path shows where the satellite is in the earth's shadow,  

DLR